Location: Newark
(43.0000°N, 1.6781°W)
Time: 23:10:23
(UTC+00:00)

Vanguard 1 - Pass Details

Date: 02 December 2021
Orbit: 652 x 3830 km, 34.2° (Epoch: 17 January)

Event Time Altitude Azimuth Distance (km) Brightness Sun altitude
Exits shadow 04:49:41 33° 258° (WSW) 4,715 12.9 -26.7°
Maximum altitude 04:59:45 55° 201° (SSW) 3,200 12.4 -24.9°
Drops below altitude 10° 05:12:05 10° 128° (SE) 4,305 14.2 -22.6°
Sets 05:14:51 0° 123° (ESE) 4,966 14.8 -22.1°
